sat.trackr.live / text

‹ back to catalog

STARLINK-30761

NORAD 58134 · 2023-162S

PAYLOAD ACTIVE UNKNOWN

§ Identity

Operator
Country
US
Launch date
2023-10-22
Launch site
AFETR
Launch vehicle
Mass (kg)
RCS (m²)

Purposes: comms

External: N2YO · Heavens-Above · Gunter

§ Orbital elements

Epoch: 2026-05-25T04:17:06.777024Z

Period
94.27 min
Inclination
43.0018°
Eccentricity
0.0001044
Mean motion
15.27586799 rev/d
Perigee alt
482.3 km
Apogee alt
483.7 km
Semi-major
6,861.2 km
B*
-4.4327e-6
RAAN
60.6277°
Arg perigee
258.2000°
Mean anomaly
101.8735°
Rev number
14,400

§ Raw data

STARLINK-307611 58134U 23162S   26145.17855066 -.00000384  00000+0 -44327-5 0  99922 58134  43.0018  60.6277 0001044 258.2000 101.8735 15.27586799144006

JSON: /api/v1/satellites/58134 · /tle

For live sub-satellite position, see the globe view (requires WebGL).

§ Visibility from observer

Set your observer location to see the next 7 days of passes ≥ 10°. The values pass through the URL so the page stays shareable.

No JS? Fill the form by hand. The geolocation button needs JavaScript.